Theta_e
366 365 364 363 362 362 360 359 359 359 358 357 357 356 355 356 357 355 354 352 351 353 356 357 360 360 360 360 360 360 361 360 360 361 360 362 362 360 359 359 359 360 361 361 360 359 359 360 361 360 361 360 359 359 358 358 359 358 358 358 357 357 356 356 359 361 359 358 359 357 356 356 356 356 355 355 356 356 356 357 357 357 358 358 358
365 366 365 363 363 363 362 361 360 361 360 359 359 360 357 356 356 355 354 354 353 353 355 357 359 360 360 360 359 359 360 361 360 360 361 361 362 361 359 359 359 360 361 361 359 359 360 360 362 362 361 361 361 361 360 358 359 360 359 360 359 359 358 358 359 362 362 361 360 359 358 358 358 358 357 357 356 357 357 357 358 359 360 360 361
366 366 366 363 363 364 363 363 362 362 362 360 360 360 359 357 357 355 354 355 355 354 356 357 358 359 360 360 358 357 358 360 359 360 360 361 362 362 360 359 360 361 363 363 362 360 360 361 362 363 363 362 361 361 361 359 358 358 359 358 359 359 360 360 360 362 362 361 360 360 359 359 359 359 358 357 358 359 360 360 360 360 359 359 360
367 367 366 364 365 364 363 363 363 362 363 361 360 361 359 357 356 355 354 355 357 356 356 358 358 358 359 359 358 356 357 358 358 359 360 360 361 362 361 359 359 362 363 364 363 362 361 361 362 363 363 361 360 361 361 360 358 357 357 356 355 356 356 357 358 359 360 361 361 361 360 360 360 359 358 359 360 361 360 360 360 359 358 358 358
367 367 366 365 365 364 363 364 364 363 362 361 360 359 360 358 355 356 355 355 357 357 357 358 359 358 358 358 357 356 356 357 357 359 359 360 361 363 362 360 359 360 362 363 363 363 362 361 361 362 362 360 360 360 360 361 361 359 357 356 356 355 356 357 358 359 360 362 363 362 361 361 360 360 359 360 361 360 359 359 359 358 358 358 359
367 367 367 364 363 364 364 364 364 363 361 361 360 359 358 358 357 356 357 355 355 358 358 359 360 359 358 357 357 356 355 355 356 359 360 360 361 362 362 361 360 360 360 362 362 362 362 362 361 361 361 361 360 359 360 362 361 361 359 359 358 359 360 360 361 362 362 363 363 362 362 361 361 361 360 360 359 358 357 357 358 359 361 361 363
367 367 366 365 364 365 364 363 363 362 361 361 361 359 357 358 358 358 358 356 355 358 359 359 360 360 359 358 359 357 356 356 356 358 359 360 360 360 361 362 361 360 360 361 362 362 362 361 361 361 361 361 360 360 360 360 361 361 361 361 361 361 361 361 361 362 362 363 363 362 362 362 361 360 359 358 357 357 357 359 362 363 364 365 364
368 367 368 366 365 366 364 363 364 363 362 361 361 360 357 358 359 359 359 358 356 357 359 359 360 361 361 359 359 359 358 357 358 358 358 360 360 359 360 361 362 361 360 360 360 361 362 361 361 361 360 360 360 359 359 360 361 361 360 360 362 362 362 363 363 363 363 362 363 362 362 361 360 360 358 358 359 359 360 362 365 366 365 364 362
367 368 367 366 365 366 365 363 363 364 362 361 361 360 358 357 359 360 360 359 356 354 357 359 360 360 362 361 360 360 360 360 360 360 358 359 359 359 359 360 360 359 359 360 359 359 360 360 359 359 359 358 358 358 358 360 360 360 360 360 361 362 362 363 364 364 364 364 364 363 362 362 361 360 360 360 361 360 360 364 366 366 364 362 360
367 367 367 367 365 365 365 365 364 364 363 362 361 360 359 358 357 360 360 360 357 355 355 358 361 360 362 363 363 362 362 362 361 361 360 359 358 359 358 359 359 359 358 359 359 359 359 358 356 354 355 356 356 356 356 356 358 358 359 360 360 361 363 364 364 365 365 365 364 363 362 362 361 360 359 359 359 360 364 366 366 364 362 361 359
367 366 368 368 366 366 367 366 365 364 364 363 361 361 360 358 357 358 360 360 358 357 354 357 360 361 361 364 365 364 363 363 364 362 361 361 359 358 358 359 359 359 358 359 358 358 358 358 356 353 350 352 353 354 353 353 354 355 355 355 357 358 359 361 364 365 366 366 365 363 363 362 360 360 360 359 359 362 365 365 364 363 362 361 360
366 366 368 368 368 368 367 367 367 365 364 364 362 360 360 359 357 357 359 360 359 358 356 356 358 360 361 362 365 366 364 363 364 364 362 362 360 359 358 359 360 361 360 359 358 358 358 357 355 352 350 349 350 351 353 352 352 352 352 353 353 353 353 353 356 359 361 363 363 363 362 362 361 359 358 358 361 362 363 364 364 363 362 360 360
366 367 369 369 368 368 368 369 368 366 364 364 362 362 361 360 359 357 358 359 360 359 358 356 357 359 360 361 364 366 364 363 364 364 363 362 361 361 360 359 360 361 362 360 358 357 357 356 354 352 350 349 349 350 351 352 352 353 353 354 355 354 354 353 352 351 351 355 357 357 356 358 358 357 357 360 362 363 365 365 363 362 362 360 356
365 367 369 369 370 369 369 369 369 366 365 364 363 363 361 361 360 358 358 359 360 362 360 358 357 357 359 360 362 363 365 363 363 364 363 363 361 360 362 361 360 360 361 362 361 359 357 357 355 353 351 350 349 350 353 354 353 354 355 356 357 358 358 357 354 351 350 350 351 351 349 350 354 356 359 362 363 364 364 363 362 361 359 354 350
366 368 370 371 370 370 370 371 370 368 366 365 365 363 361 362 361 360 358 358 361 363 362 359 358 357 357 360 361 362 364 364 363 362 362 363 362 361 361 361 361 360 360 361 361 361 359 357 356 355 354 351 349 350 354 356 357 357 359 360 362 362 361 359 356 354 353 351 351 351 351 353 356 358 360 363 364 362 361 361 359 355 351 348 348
368 369 369 371 371 372 371 371 371 370 367 366 366 365 363 362 362 360 359 358 360 363 363 362 360 358 358 358 359 361 362 363 363 363 363 363 363 362 361 360 360 359 358 359 359 360 360 358 358 357 355 355 353 351 352 354 358 361 363 365 365 365 364 362 359 359 360 359 357 357 358 359 359 359 361 362 361 360 360 358 351 345 346 348 350
368 369 369 371 372 372 372 372 372 371 369 367 367 366 365 363 362 361 360 359 360 363 363 363 362 361 360 359 359 361 362 362 363 363 364 363 363 362 362 361 360 358 357 357 358 359 359 359 359 358 358 357 356 355 353 353 354 359 363 365 367 368 367 366 364 362 362 362 361 360 360 359 359 359 360 360 359 359 359 352 343 342 347 349 349
368 370 369 370 371 371 372 373 373 372 370 368 367 367 366 364 363 362 361 360 361 363 365 364 363 362 361 361 361 360 361 361 362 362 363 363 362 363 362 361 360 359 357 356 357 359 360 359 360 360 360 359 359 358 357 356 356 357 359 363 366 367 366 364 361 360 360 360 360 361 360 359 359 359 358 359 359 360 354 346 341 345 348 349 347
367 370 369 369 370 372 373 374 374 373 372 369 368 368 367 365 364 362 362 361 361 363 366 366 365 364 362 361 362 362 362 361 361 362 363 363 362 362 361 361 362 361 359 358 357 357 359 360 361 361 361 361 361 361 361 360 360 360 359 361 364 364 364 361 360 359 360 360 360 360 360 359 359 360 360 361 360 357 350 344 344 344 347 348 346
365 369 369 369 370 372 373 374 374 373 373 371 370 370 368 366 364 363 361 361 361 363 365 366 366 366 364 363 364 363 363 362 361 362 362 362 362 362 361 362 362 362 362 361 359 358 357 359 360 361 361 362 362 362 363 363 363 363 362 363 364 364 363 361 361 362 364 363 363 362 362 363 362 362 362 362 357 352 349 346 344 344 346 346 343
364 369 370 369 370 372 373 374 374 373 373 372 371 371 369 367 365 364 363 361 361 361 363 366 366 366 365 363 363 363 363 364 362 361 361 362 362 361 362 362 362 362 362 362 362 360 359 358 358 360 361 362 362 361 362 363 364 364 364 364 364 364 364 363 363 364 365 365 365 364 364 363 363 362 362 359 354 350 351 348 343 343 344 342 341
364 368 370 369 371 373 373 373 374 373 371 372 372 371 370 369 367 366 364 363 361 361 361 362 364 364 365 365 364 363 363 363 364 363 362 361 361 362 362 362 362 362 362 363 363 362 360 359 358 357 359 361 362 362 361 361 362 363 364 364 364 364 364 364 363 363 363 364 363 363 362 362 363 362 358 353 346 344 346 344 339 339 340 340 341
365 368 371 370 371 371 373 373 373 372 372 372 373 372 372 370 369 368 366 364 363 362 361 361 360 362 363 364 364 363 362 362 362 363 362 361 361 361 361 361 361 361 362 363 364 363 362 361 360 359 359 359 360 360 360 360 361 361 362 363 364 364 364 362 361 361 361 362 361 361 361 361 361 359 354 347 341 340 341 337 336 339 340 341 341
366 370 370 371 371 372 372 373 373 372 372 373 372 373 372 370 369 369 367 366 365 365 363 362 360 360 360 362 362 362 362 362 362 362 362 363 361 361 360 360 361 361 361 363 364 364 364 363 361 360 361 361 361 361 362 361 361 360 361 362 362 362 362 360 359 358 358 358 359 361 360 361 361 357 349 343 341 340 336 334 337 340 340 339 338
369 371 371 372 371 372 372 373 372 372 371 372 373 373 372 371 371 370 369 367 366 366 366 364 363 361 360 361 362 362 361 361 361 361 362 363 362 362 360 360 361 361 361 362 363 364 365 364 363 362 361 361 363 364 364 364 363 362 360 360 361 361 360 359 357 357 357 358 359 360 360 361 360 353 345 342 341 337 334 336 339 340 340 339 339
370 372 373 372 371 370 370 371 372 371 371 373 373 373 372 371 371 371 370 369 368 368 367 366 365 363 361 362 362 362 362 363 365 364 362 363 363 363 362 361 360 360 361 361 362 363 363 363 363 363 363 364 364 364 365 364 363 362 361 361 360 359 358 357 356 356 358 359 359 360 360 359 355 348 344 343 338 334 337 341 340 338 339 339 338
371 372 373 372 371 371 370 370 371 371 371 372 373 373 372 370 370 371 371 369 368 369 368 367 367 366 363 362 363 362 362 364 367 367 364 363 364 363 362 362 361 360 360 361 362 362 362 361 361 361 362 363 364 363 364 363 362 362 360 358 357 356 355 355 355 356 359 360 361 360 359 353 348 345 343 341 336 335 340 342 338 338 339 339 338
372 373 373 371 371 370 370 369 371 370 371 372 372 372 372 371 370 371 371 369 369 369 369 368 368 367 366 364 363 364 363 363 366 367 364 364 364 364 362 362 361 360 360 360 360 360 359 359 359 358 359 361 362 361 361 361 361 360 359 356 354 354 353 355 356 357 359 360 360 358 353 347 343 342 341 338 337 339 342 340 336 335 337 338 339
373 373 372 372 370 369 370 371 371 370 371 372 372 372 371 371 370 370 369 369 369 369 368 368 368 367 367 366 363 364 364 363 364 366 366 364 364 363 363 363 362 361 361 360 359 359 358 357 356 357 357 358 359 359 359 358 358 356 356 355 353 353 354 356 357 358 359 359 357 353 347 343 341 339 338 338 340 341 340 337 334 333 336 339 339
373 373 373 372 370 370 369 371 371 369 370 372 372 371 371 371 370 371 370 370 370 369 368 367 367 367 366 366 364 364 365 363 363 365 366 366 365 364 364 363 363 362 361 360 359 358 359 357 356 357 357 357 358 358 357 357 356 355 354 354 354 354 356 356 357 357 356 354 352 348 344 340 339 338 338 339 340 340 339 337 335 335 338 338 337
373 373 373 372 370 370 370 370 371 370 370 372 371 368 367 367 369 370 371 369 368 368 368 368 367 365 363 364 364 363 363 364 363 364 364 365 365 365 364 363 363 362 362 360 356 355 358 359 357 357 357 358 358 359 358 358 356 355 354 354 354 354 356 356 355 354 353 350 348 345 343 340 339 339 338 338 339 339 338 338 337 337 338 337 335
375 373 371 371 369 369 370 370 371 371 372 373 371 368 366 364 364 366 369 369 368 368 367 365 365 364 363 364 365 364 363 364 364 364 365 365 365 365 365 364 363 362 361 359 356 355 357 359 359 358 358 358 359 358 357 358 357 355 355 354 353 354 354 354 353 351 349 347 345 343 341 339 338 338 337 338 338 337 337 338 338 338 337 335 334
373 372 370 370 369 369 369 370 371 371 373 373 372 370 368 367 364 362 362 364 365 366 365 364 364 365 364 365 366 366 365 364 365 365 366 365 365 365 364 364 362 362 359 357 356 356 357 358 359 359 359 358 358 357 357 357 357 356 355 354 353 354 353 352 350 347 345 343 342 342 340 337 337 337 337 336 335 334 335 337 338 337 337 335 333
371 371 369 369 369 370 371 371 370 371 372 372 373 371 369 369 367 361 358 358 360 361 361 362 363 364 365 365 367 366 366 365 366 366 366 366 366 365 364 362 361 359 358 357 357 357 358 359 359 360 360 359 358 358 358 357 356 355 355 354 354 354 352 348 343 341 341 341 341 339 338 336 335 335 335 335 334 334 336 337 337 336 336 333 331
366 366 367 369 370 370 370 370 370 371 372 372 372 372 370 369 367 364 362 361 359 358 358 359 361 363 364 366 367 367 367 367 366 366 367 366 365 364 362 361 359 357 356 357 357 358 359 359 359 360 361 360 360 359 358 357 356 356 355 354 354 351 347 343 341 340 340 340 339 337 336 335 335 335 334 335 336 335 336 336 335 334 334 332 330
352 352 357 362 367 368 370 370 370 369 371 372 372 372 371 370 368 366 365 364 364 362 359 356 356 359 362 365 367 367 366 367 366 366 366 365 364 364 362 360 359 357 355 355 357 358 359 359 359 360 361 361 361 360 359 358 357 356 355 353 351 348 344 342 341 342 340 337 335 335 335 335 335 334 334 334 336 335 334 334 333 332 332 331 330
347 345 347 351 357 364 368 371 371 369 370 371 372 372 372 372 370 368 366 366 367 366 360 354 354 356 358 361 365 365 364 364 364 364 364 364 363 364 362 361 359 357 354 355 356 358 358 359 359 360 361 362 362 361 359 358 356 354 352 349 347 346 344 343 342 341 338 336 335 334 334 333 334 334 333 333 333 334 334 334 332 331 331 330 329
347 345 345 347 351 359 366 369 370 371 370 371 373 372 372 371 371 369 368 367 367 365 358 354 355 356 355 357 359 362 363 362 361 361 361 361 360 361 361 360 360 358 357 356 356 357 358 359 360 360 361 361 361 359 357 355 353 350 348 345 343 343 342 341 339 338 336 336 336 335 334 333 333 334 334 333 332 332 333 333 332 331 331 330 330
344 344 345 346 349 354 359 362 367 370 373 373 372 372 372 370 371 370 368 366 364 360 357 357 358 358 355 353 354 357 357 357 357 357 357 357 358 358 358 359 359 359 358 357 356 357 356 356 356 355 355 355 356 354 352 349 347 345 344 343 342 340 340 338 337 335 335 336 337 336 335 334 334 334 335 333 332 331 331 332 332 331 330 330 330
341 342 344 345 346 349 352 354 357 364 369 372 371 371 371 369 368 366 364 362 359 357 357 358 358 355 352 352 353 353 354 354 355 354 353 353 354 355 355 355 355 354 354 353 353 353 352 352 351 350 349 349 348 348 345 343 342 341 341 340 339 338 338 338 337 335 334 334 333 334 335 334 333 334 334 333 333 332 331 331 331 330 329 328 329
339 340 342 343 344 345 346 347 349 354 359 362 363 365 367 367 367 366 362 360 358 357 356 354 351 349 348 349 351 352 352 353 353 352 351 351 351 350 349 349 349 348 347 347 347 347 347 346 346 345 344 343 342 342 340 339 338 338 337 337 336 336 336 336 335 334 332 329 328 331 334 334 332 333 334 332 332 332 331 330 330 329 328 328 329
336 337 338 340 341 342 341 342 344 347 349 352 353 355 358 359 360 359 358 356 353 351 348 345 343 343 344 345 347 349 350 350 348 348 347 347 345 343 343 342 342 342 342 342 342 342 342 341 340 340 339 338 337 337 337 337 335 335 334 334 333 332 332 331 332 333 332 330 329 332 334 333 333 333 333 331 331 331 330 330 331 330 329 329 330
332 333 334 335 336 337 337 338 339 340 342 343 344 345 347 348 348 348 347 345 343 341 340 339 339 339 340 342 344 345 344 344 343 341 340 339 338 338 338 337 337 337 338 338 338 338 337 336 335 335 335 335 335 334 334 335 335 334 334 333 331 329 328 329 332 334 333 332 332 333 334 333 332 332 332 331 331 331 331 331 331 330 329 329 329
330 329 330 331 331 332 333 334 335 336 336 337 337 338 339 339 339 338 338 336 336 336 336 336 337 338 338 339 339 339 338 337 336 334 333 332 333 333 333 333 333 334 334 334 334 333 333 331 331 330 331 332 332 332 332 333 334 333 332 331 330 329 328 329 330 331 331 331 331 332 331 332 331 330 331 331 330 329 329 329 328 329 328 328 327
327 326 327 327 328 327 328 329 331 332 332 333 333 333 333 333 334 333 333 333 333 334 335 336 336 335 333 333 333 333 332 330 328 327 327 327 326 327 328 328 328 329 329 329 329 328 327 326 325 324 324 324 325 326 326 328 330 330 328 327 328 327 326 326 325 326 327 327 327 326 326 327 326 327 327 326 325 324 324 324 324 324 324 324 324
325 324 324 325 325 325 324 324 326 327 328 329 330 330 330 331 331 332 332 333 333 333 334 334 332 330 329 328 329 328 326 324 323 322 322 322 322 322 323 324 324 324 324 324 324 323 322 321 320 320 320 320 322 322 322 323 325 325 325 325 325 324 324 324 324 325 325 325 324 322 322 323 323 323 323 322 322 322 322 322 322 322 321 321 321
321 321 321 322 322 322 322 322 322 323 323 324 325 326 327 327 327 328 329 331 331 330 329 328 326 326 325 325 324 323 322 321 320 319 319 319 319 319 319 319 319 319 319 319 318 318 318 318 318 318 319 319 320 320 319 319 320 320 321 321 321 321 322 323 322 321 322 323 322 321 322 322 321 321 321 320 320 320 320 320 320 320 319 319 319
317 317 317 317 318 318 319 319 320 320 320 319 320 320 321 321 321 321 322 324 326 326 325 324 323 323 322 322 321 320 320 319 318 317 317 316 315 315 315 316 315 315 315 315 314 314 314 314 315 315 316 317 318 317 316 315 315 316 315 316 315 315 317 319 319 317 317 319 319 320 320 320 320 320 320 320 320 320 320 319 319 318 318 317 317
313 313 313 313 313 314 314 315 316 317 318 318 318 317 317 317 317 316 317 318 319 321 321 321 320 319 319 319 319 318 318 317 316 315 314 313 312 312 312 312 312 312 312 311 311 311 311 311 312 312 313 313 313 313 312 312 312 312 312 312 311 311 312 314 315 313 314 317 319 319 320 320 320 320 320 319 318 318 317 317 316 316 315 315 315
310 310 310 309 309 310 310 311 312 313 314 315 316 316 315 315 314 314 314 314 314 315 315 315 315 315 315 315 315 315 314 314 313 312 311 310 310 310 309 309 309 309 308 308 307 307 307 307 307 307 307 307 308 308 308 309 310 310 310 309 310 310 310 311 311 311 312 315 317 318 318 318 318 318 318 317 316 315 315 314 314 314 313 314 314
308 307 307 307 307 307 307 308 308 309 309 310 311 311 312 311 311 311 311 311 311 311 311 311 311 311 311 311 311 311 311 311 310 309 308 308 307 307 307 306 306 305 304 304 303 303 302 302 302 303 303 303 304 304 305 305 305 306 307 308 309 310 310 310 310 310 311 312 314 315 315 315 315 314 314 313 312 312 313 313 312 312 312 313 314
Wind_Speed
35 36 36 35 36 37 37 36 35 33 32 31 30 30 30 28 27 25 25 25 25 24 24 23 23 23 22 21 20 19 19 19 17 18 17 16 15 13 13 13 14 13 12 11 11 10 10 10 10 9 9 9 9 8 8 9 9 9 8 8 8 9 10 11 9 10 13 13 13 15 14 15 17 17 17 17 17 16 18 19 20 21 23 23 23
35 36 36 36 37 37 36 36 36 33 31 31 30 30 30 30 29 27 26 26 26 26 25 25 24 24 23 23 22 21 21 21 19 18 19 18 16 15 14 14 15 14 14 13 13 11 11 11 11 11 11 11 11 10 10 10 10 11 10 9 11 11 11 13 13 12 12 13 14 15 15 15 16 16 16 17 18 18 19 20 21 21 21 21 22
35 35 35 36 36 37 36 35 35 34 31 31 31 30 30 31 30 29 27 26 27 27 27 26 25 25 25 24 25 24 23 23 21 20 20 19 18 17 15 15 16 15 15 15 14 14 12 12 13 13 13 13 13 13 12 12 11 11 11 9 10 10 10 12 13 12 12 14 14 15 15 15 16 18 18 19 19 18 19 20 20 20 20 20 21
34 34 34 34 34 36 36 35 35 34 32 31 31 30 30 30 31 31 28 26 27 28 28 27 27 27 27 26 26 26 24 24 24 22 21 21 20 19 18 17 17 17 16 16 15 15 15 15 15 14 14 14 15 14 13 13 13 12 13 12 11 11 11 12 13 14 14 14 15 16 17 17 18 19 19 19 18 17 18 19 20 21 22 22 22
34 34 34 34 34 36 36 35 35 35 34 32 33 32 30 29 30 31 30 28 28 28 29 28 28 28 29 27 28 28 27 26 25 24 22 22 21 20 19 19 18 18 18 18 17 17 17 17 17 16 16 16 16 16 15 14 14 13 13 13 13 13 13 14 15 15 15 16 17 17 17 18 19 19 19 19 18 18 18 19 21 22 23 22 22
33 33 33 34 35 36 37 37 36 36 35 33 33 33 31 30 30 30 30 29 28 28 29 30 29 30 30 29 28 29 29 28 27 26 24 23 23 21 20 20 20 19 19 19 18 18 18 18 18 18 18 18 17 17 16 15 15 14 14 13 13 13 13 14 14 15 16 17 18 19 19 19 20 19 17 16 17 19 22 23 22 20 18 18 19
33 33 33 34 35 37 38 38 36 36 35 33 32 33 32 31 30 30 31 30 29 28 29 30 30 30 31 30 28 29 29 29 28 28 26 24 24 23 21 21 21 21 20 20 19 19 19 19 20 19 20 20 19 18 17 16 16 15 15 14 14 14 14 14 15 15 16 17 17 18 18 18 18 18 17 17 19 20 22 22 17 13 12 15 21
33 33 33 34 35 37 38 37 36 35 35 34 33 33 33 32 32 32 31 31 30 29 29 29 30 29 30 31 29 28 29 30 29 30 29 26 25 25 24 22 22 21 21 21 20 20 20 20 20 21 21 21 20 20 18 17 17 16 16 16 15 15 15 15 15 16 16 16 16 16 16 17 18 19 20 19 18 18 18 17 13 12 14 16 20
33 33 33 33 33 35 35 35 36 35 35 36 34 33 33 33 32 33 32 31 31 30 29 29 29 29 29 31 30 29 29 30 30 31 31 30 27 26 26 26 24 23 22 22 21 21 20 20 20 21 22 22 22 21 20 19 18 17 17 17 17 17 16 16 16 16 16 16 15 15 15 16 17 18 18 16 15 17 17 15 14 15 18 19 20
34 33 33 32 31 33 34 34 35 35 36 36 36 34 33 32 31 32 32 32 31 31 30 30 30 30 29 30 30 29 29 31 32 33 33 33 30 27 26 27 26 25 24 23 23 22 21 21 21 21 23 24 24 23 22 21 20 20 19 18 17 17 16 16 16 16 17 16 15 15 14 15 15 15 15 15 16 16 16 15 17 19 21 20 20
33 32 32 31 31 32 34 33 33 35 36 37 37 35 34 33 32 31 32 32 31 31 31 30 30 30 29 29 30 30 30 30 33 34 34 33 32 29 27 27 27 27 25 25 25 24 22 23 22 22 22 24 25 26 25 23 23 23 23 22 21 19 17 16 16 16 15 15 15 14 14 15 15 14 15 16 16 15 16 18 19 20 20 18 18
32 32 31 31 31 32 34 33 33 35 35 36 37 36 34 33 33 32 32 33 31 31 31 31 31 30 29 28 29 30 30 30 32 35 35 34 33 31 28 26 26 27 26 26 26 25 24 23 22 21 21 22 24 25 25 25 24 24 25 25 25 24 23 22 21 21 19 16 14 14 15 15 15 16 17 16 15 17 18 19 18 18 19 19 18
31 31 32 33 32 32 34 34 33 34 35 35 36 37 35 34 34 33 32 32 32 31 31 31 30 30 30 30 29 29 29 30 31 34 36 36 35 32 29 26 25 25 26 26 26 25 25 25 23 22 21 20 22 25 26 25 25 25 26 26 25 25 25 25 25 26 26 23 20 20 21 19 18 20 18 16 16 17 16 16 16 18 20 20 21
31 32 33 34 34 33 34 34 34 34 34 34 35 36 35 34 34 33 31 31 32 31 30 30 30 30 30 31 31 29 28 30 31 33 34 36 36 35 30 25 23 24 24 24 24 24 26 26 25 25 24 22 21 22 24 26 25 24 25 25 26 25 24 24 24 24 26 27 27 27 26 23 21 21 19 16 16 16 15 16 17 19 21 20 21
29 32 32 33 34 35 35 35 34 34 35 34 34 36 36 34 33 32 30 30 32 32 31 30 30 30 29 28 29 29 28 29 31 32 33 34 35 36 33 26 22 22 23 24 24 25 25 26 26 25 25 25 24 21 21 23 24 23 23 24 24 23 23 24 23 21 22 23 25 25 23 21 20 20 18 17 16 16 17 19 20 20 19 19 19
27 32 33 33 35 36 36 35 34 34 35 35 34 35 36 35 33 32 30 29 29 31 31 30 29 30 30 28 27 27 27 29 30 32 33 33 33 35 36 31 26 23 22 22 24 25 25 25 26 25 25 25 26 25 23 22 21 21 20 20 20 20 21 21 19 18 18 18 20 20 19 19 19 18 18 18 18 19 20 20 19 16 15 16 15
28 32 34 34 34 35 35 35 35 34 35 35 35 35 35 35 34 32 30 28 28 29 30 29 29 29 29 29 28 26 25 27 29 31 32 33 33 34 36 34 31 28 25 22 21 23 24 25 25 25 26 25 25 25 25 24 23 21 20 18 18 18 19 18 17 17 18 18 19 19 19 19 19 19 19 19 19 19 17 16 15 12 12 13 10
29 33 35 35 35 35 35 35 35 34 35 35 35 35 35 35 35 34 31 29 27 27 28 28 28 28 28 29 30 28 26 25 26 28 30 32 33 34 35 34 32 30 28 26 23 22 23 25 25 25 26 26 25 24 25 25 25 24 22 20 18 19 19 17 16 17 18 19 20 22 21 21 20 20 19 19 18 18 16 14 12 10 11 12 11
32 34 36 36 34 34 34 34 34 34 34 35 34 34 35 35 35 35 33 30 28 27 27 27 27 27 27 28 29 30 28 27 26 27 28 30 32 34 35 33 31 29 29 28 27 25 24 24 25 27 27 26 25 24 24 25 25 25 24 21 19 20 19 17 17 18 18 17 19 20 20 19 18 17 17 17 16 15 14 13 11 9 12 14 14
34 33 34 34 34 34 35 35 34 33 33 34 33 33 34 33 34 34 33 31 29 27 26 27 26 26 26 26 28 29 29 29 29 29 29 30 31 33 34 32 30 29 28 27 27 28 28 27 26 27 28 28 28 26 25 24 25 25 24 22 21 21 19 16 16 16 13 11 12 13 13 13 13 14 16 16 16 15 14 13 10 9 12 14 12
32 30 32 33 33 34 34 34 34 33 33 33 32 32 33 33 33 34 33 32 30 28 26 26 25 25 25 25 26 28 29 29 30 30 31 32 33 35 35 33 31 29 27 27 26 26 28 30 29 29 29 29 30 30 29 27 25 24 24 24 22 21 18 16 13 11 10 9 10 11 11 12 13 15 17 16 14 13 11 8 6 7 9 10 10
30 29 32 33 32 33 33 33 34 33 32 32 32 32 33 33 33 34 34 32 31 30 28 26 25 25 25 25 26 27 28 30 32 32 32 34 35 36 36 35 33 30 27 26 26 25 26 28 30 30 30 30 30 31 32 31 28 26 25 25 24 22 21 18 15 12 11 11 12 12 12 12 13 14 14 12 9 6 5 4 4 6 7 8 8
30 30 31 32 31 31 32 33 33 32 31 33 33 32 32 33 32 33 33 31 30 30 29 28 25 23 24 25 25 26 27 30 32 33 33 34 36 37 38 37 35 32 29 26 25 26 26 26 27 27 28 28 29 30 31 32 32 31 28 26 26 25 23 21 19 17 15 14 14 13 13 13 13 13 12 9 6 5 6 6 6 6 7 9 8
30 30 31 32 30 30 30 31 32 31 31 32 33 32 32 32 31 32 33 31 28 28 28 28 26 23 23 23 24 24 25 27 30 33 34 34 35 37 38 38 37 35 32 27 23 23 23 24 25 24 24 25 26 27 28 29 31 32 30 29 29 28 26 25 23 22 20 19 18 16 15 15 14 13 11 11 10 8 7 7 6 6 8 8 7
30 29 30 30 29 29 29 30 31 31 31 32 33 32 32 31 30 30 31 30 27 26 26 27 27 25 23 23 23 23 24 25 27 30 33 34 35 36 37 39 39 37 34 29 24 21 21 22 23 24 23 23 23 24 26 27 27 28 29 29 29 28 27 26 24 22 21 20 19 17 16 16 16 14 12 12 11 9 7 6 5 6 6 5 6
30 29 28 29 29 30 30 30 31 32 31 31 32 31 32 31 30 29 29 28 27 26 25 26 26 25 24 24 24 24 24 24 25 28 31 33 34 35 36 38 39 38 36 32 27 24 22 19 19 21 22 23 23 24 25 25 25 26 26 26 26 25 25 24 23 22 20 19 19 18 16 16 16 16 15 13 9 7 6 5 5 4 2 3 5
29 28 28 28 28 30 31 31 31 32 31 30 30 30 30 30 29 29 29 27 26 26 25 25 25 25 25 24 24 24 24 23 23 26 31 33 34 35 36 37 40 40 38 34 30 28 24 19 16 16 17 19 21 23 24 24 24 25 24 23 23 23 23 22 21 21 21 19 18 17 17 16 16 17 17 13 9 6 6 6 4 2 2 3 5
28 27 28 28 27 29 30 30 30 30 29 29 29 28 29 30 29 30 31 30 28 27 26 26 25 25 24 24 23 23 23 24 24 27 31 34 35 37 38 38 40 42 41 38 32 27 23 19 16 14 14 15 17 19 21 22 23 23 23 22 21 22 21 20 21 21 21 21 20 17 16 16 16 16 13 9 7 8 9 7 5 3 2 2 4
27 27 27 27 27 29 29 29 30 30 28 28 29 28 29 30 30 30 31 33 32 29 28 27 26 25 24 25 24 23 24 26 27 27 30 32 34 36 38 39 40 41 41 40 35 27 21 19 17 15 14 14 15 15 16 18 20 21 21 21 20 21 21 21 23 23 21 21 21 17 16 17 16 12 10 9 10 10 9 7 5 2 1 2 4
25 26 27 27 27 28 28 28 30 30 29 28 28 27 26 27 29 29 30 31 30 29 28 28 27 26 25 25 27 26 25 27 27 26 27 29 31 34 35 36 37 37 37 38 35 28 22 20 19 17 17 16 16 15 16 18 20 20 20 20 20 21 22 23 24 23 21 20 20 18 16 15 14 12 11 11 12 11 9 7 5 3 2 4 5
22 23 25 26 28 29 28 28 30 30 29 28 28 26 23 21 23 27 28 29 28 28 28 27 27 27 26 24 26 27 25 24 25 26 27 26 28 31 32 33 35 36 35 36 35 28 23 20 20 20 20 19 19 20 19 20 21 21 20 20 20 22 23 24 24 23 20 19 20 19 17 15 14 14 14 13 11 10 9 8 6 5 5 4 4
21 22 24 25 28 29 28 28 29 28 27 27 27 27 24 19 17 19 23 27 29 28 26 26 26 27 26 23 23 27 27 25 24 25 26 25 25 27 28 29 31 33 33 33 31 29 26 22 20 21 23 22 22 23 22 22 22 21 20 19 20 23 24 23 22 22 20 18 19 18 17 16 14 12 11 9 7 7 7 7 6 5 5 3 4
21 23 25 26 28 29 28 28 28 28 28 26 26 27 25 19 16 16 18 22 26 26 24 24 24 25 26 24 21 22 25 25 24 24 24 24 24 25 26 26 26 28 30 30 28 26 26 25 22 22 23 23 23 23 24 24 23 22 22 21 21 23 23 20 18 19 18 16 16 15 12 9 6 2 2 2 2 4 5 6 6 6 6 3 3
26 27 28 27 27 28 28 28 28 28 28 26 25 26 26 22 21 21 19 18 19 21 22 21 21 22 23 22 19 19 20 20 21 21 21 22 24 26 27 25 24 25 29 30 28 25 25 26 25 23 23 23 24 23 24 25 24 22 23 23 20 20 19 15 14 15 15 14 12 9 6 6 4 2 3 3 6 7 7 7 7 7 5 2 2
18 21 25 27 28 28 28 28 28 27 26 27 26 25 25 24 23 25 23 18 17 18 19 20 20 19 19 18 17 17 17 18 18 19 20 22 26 28 27 26 25 27 30 31 28 25 24 24 24 23 22 24 25 25 24 24 23 21 21 21 19 16 14 13 14 13 11 10 9 8 9 11 11 10 10 10 10 10 8 7 7 6 3 3 1
11 14 17 19 24 28 27 26 28 27 26 26 25 25 25 24 23 23 24 20 17 16 17 19 19 18 17 17 17 17 17 17 17 18 21 23 27 30 29 28 27 28 30 29 25 22 22 21 20 22 22 23 25 26 24 24 23 21 18 18 17 14 11 13 15 13 11 10 10 10 12 14 14 12 11 11 10 9 8 7 5 3 1 2 1
5 11 18 21 20 26 29 27 27 29 27 26 25 24 25 24 23 23 23 22 19 18 19 20 21 19 17 17 18 19 19 19 18 19 22 24 27 29 28 27 25 25 26 25 23 20 20 19 19 21 22 22 23 23 22 21 21 19 16 14 14 13 12 13 15 16 14 12 11 12 14 14 11 9 9 8 7 7 8 8 6 4 5 6 6
6 5 10 19 22 21 24 25 26 29 28 25 23 23 23 23 22 22 23 23 21 20 21 23 23 21 20 20 20 20 20 20 20 20 21 24 25 24 20 20 21 21 21 23 23 21 19 18 17 16 16 17 17 18 18 18 18 17 15 12 12 14 16 14 15 17 14 9 8 11 13 11 6 6 8 7 5 4 5 6 6 5 7 9 9
15 11 8 9 17 16 11 13 18 24 25 23 21 20 20 19 19 19 20 19 17 18 20 21 19 17 18 21 22 20 19 18 17 18 19 21 22 20 16 14 15 15 16 19 20 18 16 15 13 10 10 11 13 16 18 19 19 17 16 17 18 20 21 20 20 19 15 9 8 8 9 8 7 8 8 7 6 6 7 9 9 9 9 10 9
19 18 18 17 15 15 10 5 1 8 14 15 15 15 16 15 17 19 19 18 17 18 19 17 14 14 14 16 19 19 17 14 13 14 16 17 17 16 13 11 10 10 12 14 15 15 14 12 11 10 10 12 15 17 19 22 23 21 21 21 22 23 22 20 20 19 16 13 9 8 8 10 10 10 9 9 9 10 8 7 7 7 7 7 7
21 20 22 25 21 17 17 16 14 13 16 16 15 14 13 14 17 20 20 18 18 18 18 16 15 13 10 10 15 17 15 11 10 11 12 12 13 11 10 9 9 10 11 11 12 12 12 12 11 11 12 14 16 19 22 25 25 24 23 23 24 24 22 17 14 13 13 14 14 13 12 12 12 11 9 9 10 11 8 6 6 7 9 10 10
24 22 21 23 23 19 16 15 15 18 21 21 20 20 18 17 19 20 20 20 20 19 18 16 13 10 7 9 13 14 12 11 12 12 12 13 13 12 11 11 10 10 11 12 13 14 15 15 15 15 15 16 16 18 20 21 21 20 21 21 20 21 18 13 9 10 13 14 15 15 13 12 11 11 7 4 3 4 5 8 9 9 10 11 11
23 23 21 22 23 21 17 17 19 21 21 20 20 21 21 22 23 23 23 22 22 19 15 13 12 10 10 12 15 16 16 16 16 16 17 18 18 17 16 15 14 14 14 15 16 17 18 18 18 18 18 18 18 17 17 17 17 18 18 16 14 13 11 9 8 10 11 11 13 15 13 9 7 7 6 5 4 4 6 9 10 11 11 12 12
22 22 21 23 26 25 23 23 23 23 23 23 23 22 21 20 20 20 20 19 18 16 14 14 16 18 18 18 19 21 22 21 20 21 21 21 21 21 20 19 18 18 18 18 19 20 21 21 21 21 20 19 19 19 18 17 17 17 16 16 16 15 12 10 8 7 7 7 7 8 9 6 4 5 6 6 5 5 5 7 9 11 10 9 9
23 24 24 24 26 27 28 29 27 24 24 25 25 23 21 20 19 18 18 18 19 19 19 19 20 22 22 22 24 24 23 21 22 23 22 21 21 22 22 22 21 21 21 20 20 21 22 22 22 21 21 20 19 18 17 16 17 17 17 17 18 17 16 15 13 11 11 12 10 6 5 4 2 1 2 2 2 2 3 5 7 7 6 7 9
24 26 26 25 25 26 28 31 31 28 26 25 24 23 23 22 21 21 22 22 22 23 22 22 23 24 24 23 23 22 21 21 21 21 20 20 21 21 22 23 24 24 23 21 20 20 21 22 22 21 20 20 20 19 18 18 18 17 17 17 17 16 15 15 13 11 11 12 9 8 7 7 5 5 5 6 5 4 4 6 7 7 8 9 9
23 25 26 25 25 25 26 28 30 29 28 27 25 24 24 24 23 23 22 23 23 24 25 26 27 26 24 23 22 22 22 22 21 21 21 20 20 20 21 23 24 24 24 23 22 22 22 22 22 21 20 20 19 19 19 18 18 17 16 15 14 13 11 11 10 9 9 9 8 8 6 5 6 6 6 6 6 5 6 6 6 7 8 9 10
22 24 25 25 26 26 26 26 25 26 27 28 27 26 25 24 24 24 24 23 24 25 25 26 25 25 24 24 24 24 23 23 22 21 21 20 20 20 21 22 23 24 25 24 24 23 23 22 22 21 20 19 19 19 18 18 17 17 16 14 13 12 10 8 8 8 8 9 9 8 6 5 6 7 7 6 5 5 6 6 6 7 8 9 10
21 22 23 25 27 28 28 26 24 23 24 26 27 28 27 25 25 25 27 27 27 26 25 23 23 23 23 23 22 22 22 22 21 21 21 22 22 22 22 23 24 25 25 24 24 23 22 22 22 22 22 21 20 20 19 17 16 16 15 14 13 12 10 8 7 7 7 8 9 8 6 5 7 7 6 5 5 5 6 6 8 9 9 10 11
22 22 22 23 25 26 26 26 25 25 23 23 25 27 28 28 26 25 26 28 29 28 27 26 25 24 23 22 22 22 22 21 21 21 21 22 23 23 24 24 25 25 25 25 25 25 25 25 25 24 24 23 22 21 19 18 17 15 14 13 11 10 9 8 8 8 7 6 6 6 6 5 6 6 4 4 5 6 7 8 9 10 10 10 11
23 24 23 24 24 24 23 23 23 23 24 24 25 26 27 28 28 27 26 26 26 26 26 27 26 25 23 22 22 22 21 21 21 21 21 22 24 25 25 26 26 26 27 27 27 27 27 27 27 26 25 24 22 21 19 18 16 14 12 11 10 9 8 7 7 6 6 4 3 4 4 3 3 3 4 4 5 5 6 8 8 9 9 9 9
Wind_Direction
190 188 188 188 188 189 191 192 193 193 193 195 195 197 198 198 197 197 196 196 197 197 194 194 195 194 193 193 195 196 197 198 198 200 203 204 205 207 208 211 210 211 215 217 220 219 215 220 225 228 229 233 241 245 246 246 238 231 237 242 243 244 241 238 242 261 274 282 285 288 293 293 293 295 297 298 299 299 299 297 297 298 298 299 299
193 189 189 189 188 188 188 189 191 191 192 194 195 197 198 198 197 196 195 194 195 196 195 196 197 196 195 195 195 197 198 198 198 200 204 205 205 207 210 211 209 210 215 219 220 221 220 221 224 228 231 233 238 239 244 251 244 233 231 229 232 239 241 239 240 251 267 276 280 286 289 290 292 294 297 301 302 301 297 295 296 298 299 299 299
194 190 190 190 188 187 187 187 189 190 190 192 195 196 197 198 197 195 195 194 194 196 196 197 199 198 197 197 196 198 199 198 199 201 204 206 205 206 210 211 209 209 213 217 219 221 223 223 224 227 229 231 235 238 241 248 252 252 253 249 238 237 245 247 246 254 270 279 283 287 288 288 289 292 295 298 299 298 295 295 296 298 299 300 299
194 190 190 189 186 185 186 186 187 188 189 192 194 195 195 195 196 195 195 194 194 196 197 197 199 199 199 199 198 198 199 199 200 202 205 207 207 207 209 211 211 211 213 216 217 219 222 224 226 227 229 232 235 236 239 244 249 254 261 265 263 261 263 263 263 270 278 282 283 283 285 288 289 292 295 294 294 294 292 294 296 297 299 300 299
194 191 190 189 186 186 186 186 187 188 190 192 192 194 193 193 194 194 195 195 193 195 197 197 199 201 200 201 201 201 201 200 200 202 205 207 208 209 210 212 213 214 216 218 218 220 222 224 226 227 229 233 235 235 238 241 243 247 252 255 259 262 262 262 264 267 269 274 279 283 286 288 289 292 294 292 292 294 294 294 295 297 299 300 299
194 191 190 190 188 187 187 187 189 189 190 192 191 193 193 192 193 193 194 196 194 194 196 197 199 202 201 202 203 203 203 202 202 203 205 207 208 209 212 214 215 216 218 220 221 223 224 225 227 227 228 231 234 235 236 238 241 244 246 249 252 255 257 259 260 262 263 266 273 280 283 284 285 288 293 295 294 295 295 294 294 297 302 305 304
194 191 192 192 190 188 188 189 190 190 190 192 192 193 194 193 192 193 194 196 195 194 194 196 199 202 202 203 204 205 204 204 205 205 205 206 208 209 211 213 215 217 219 221 222 223 225 227 227 228 229 230 232 234 235 238 240 241 243 247 249 251 255 259 261 262 262 263 267 273 279 284 286 288 294 297 292 292 293 292 296 308 314 313 310
192 190 192 194 192 190 190 190 190 191 191 192 194 194 195 195 193 192 193 195 197 197 195 196 198 201 202 203 204 205 206 205 206 207 207 207 208 210 211 212 214 217 219 222 224 224 226 227 228 229 230 230 231 233 235 237 238 239 241 244 246 248 251 254 258 261 262 264 268 273 280 287 288 289 293 291 286 292 299 300 309 319 318 315 312
191 191 192 196 195 192 191 191 190 191 191 192 194 195 197 197 194 192 193 195 198 199 197 196 197 199 201 202 203 204 205 206 206 208 208 207 208 210 212 213 215 217 220 222 224 226 228 229 229 229 230 232 233 233 234 235 236 238 241 242 242 244 247 250 253 257 261 264 268 274 278 282 285 288 291 293 296 305 312 317 322 321 319 318 315
190 191 192 195 195 191 191 191 191 192 191 192 194 195 196 198 197 193 193 196 198 199 199 196 196 199 200 200 201 203 204 206 207 209 209 209 208 209 212 214 215 217 219 221 223 226 228 230 232 232 232 232 233 235 235 234 234 235 238 240 240 240 244 248 251 254 258 260 263 269 272 275 282 288 294 302 309 312 319 326 326 324 323 321 318
189 190 189 192 193 191 190 192 193 193 193 193 195 195 195 197 198 196 194 196 199 200 200 197 195 198 200 199 200 203 205 207 208 209 210 210 209 210 211 214 215 216 219 220 222 225 227 229 233 236 238 235 233 235 237 237 238 239 239 240 240 240 242 246 250 253 256 259 263 266 270 275 282 289 295 302 306 308 315 321 322 321 322 321 317
189 188 187 189 191 191 190 192 194 195 194 194 194 194 195 196 197 197 195 195 198 200 202 201 197 197 199 200 201 203 206 208 209 209 210 210 210 210 212 214 214 216 219 221 223 224 226 228 231 234 239 239 236 234 235 238 242 245 248 248 247 248 250 253 255 256 257 261 266 266 268 276 283 287 290 294 297 301 306 311 314 315 316 316 309
190 187 185 187 189 190 191 192 194 196 196 195 194 194 196 196 196 197 195 194 197 200 203 204 202 198 198 200 203 204 207 209 211 211 211 212 212 210 211 214 215 216 219 221 224 225 226 228 231 233 236 238 238 233 231 234 240 246 251 252 252 254 256 257 258 257 257 257 259 260 263 268 275 279 282 284 289 295 299 301 306 308 308 308 303
190 187 185 186 188 189 190 192 195 196 196 195 194 194 197 197 196 197 196 195 195 198 202 205 207 204 201 201 203 206 209 210 213 214 213 213 214 212 210 213 217 219 220 221 224 226 227 228 231 234 235 237 239 234 228 230 236 242 247 249 251 254 256 258 258 256 255 253 253 256 260 263 266 271 277 280 281 285 292 297 302 303 301 303 304
189 185 186 187 187 188 189 191 194 196 196 195 194 195 197 198 197 197 198 197 196 198 201 204 208 210 209 205 204 206 211 212 213 215 215 215 216 214 213 213 218 223 224 224 225 226 228 230 231 233 235 236 238 237 231 229 231 236 242 246 251 254 256 259 260 256 253 252 252 255 260 263 264 267 272 275 275 282 292 297 300 301 300 304 306
189 184 187 189 188 188 188 190 193 195 195 195 195 195 197 198 198 197 199 200 198 198 200 204 208 211 212 213 210 210 213 215 215 215 215 216 216 216 215 217 220 225 227 227 227 228 229 230 231 233 235 236 237 237 235 233 230 229 235 242 249 254 257 262 265 261 256 255 256 260 264 265 264 263 264 266 274 287 294 296 301 305 306 305 302
193 187 188 189 188 189 188 189 192 193 194 195 195 196 196 197 198 198 199 200 200 198 199 203 207 209 211 213 215 216 217 218 218 216 215 215 215 215 216 218 221 226 229 231 231 231 231 231 232 233 235 236 238 238 237 236 234 232 232 236 243 247 251 258 266 269 267 264 262 264 265 262 259 258 261 267 278 288 292 293 301 310 308 303 302
198 191 190 190 189 189 189 190 192 192 193 195 196 196 195 196 197 198 199 201 201 200 199 202 207 210 210 212 214 217 219 220 219 217 215 214 213 213 215 217 221 226 230 233 235 234 233 234 234 235 236 237 238 239 239 236 235 234 233 234 240 243 247 254 261 267 267 261 256 257 258 257 258 261 265 272 279 283 282 282 290 299 300 299 302
202 195 192 191 190 189 189 191 193 193 193 194 195 195 195 195 195 197 199 202 203 201 199 201 206 209 211 213 213 214 218 222 221 218 215 214 213 213 213 215 218 224 228 232 235 235 235 236 235 235 236 237 238 239 239 237 235 234 233 233 238 244 249 253 256 260 261 255 251 252 254 257 263 267 270 275 279 275 268 270 279 288 290 290 298
205 198 192 189 188 189 190 192 194 195 193 192 193 194 193 193 195 196 198 201 204 202 199 199 204 208 211 214 215 214 216 220 223 220 216 214 213 212 211 211 215 220 224 228 231 233 234 236 236 236 236 236 237 237 237 238 236 233 231 231 236 243 248 251 252 253 249 239 237 243 251 258 263 267 270 274 277 272 264 265 277 285 284 290 308
203 197 190 188 188 189 191 192 194 196 195 192 192 194 193 192 193 195 197 199 202 203 201 199 201 206 210 213 215 214 214 217 221 221 218 217 216 212 210 212 214 217 220 224 227 230 232 234 235 236 236 236 236 235 236 237 237 233 231 231 234 239 242 241 244 244 238 234 233 236 247 256 261 266 268 268 272 271 259 255 271 281 286 301 322
197 193 189 189 190 190 191 192 193 197 197 193 192 194 193 192 192 192 195 198 200 202 203 201 200 203 206 211 215 216 215 216 219 221 220 220 218 214 213 215 216 216 218 222 225 228 230 233 235 236 237 236 236 236 237 237 237 234 232 231 232 235 236 236 238 243 247 251 248 246 251 255 258 266 267 266 270 257 208 210 267 284 289 299 307
192 190 188 189 191 192 193 192 193 197 198 194 193 193 191 190 191 191 192 196 197 200 203 204 203 202 203 208 214 218 218 217 218 220 220 221 221 218 218 219 218 217 217 220 225 228 230 232 235 236 238 238 237 237 238 238 238 237 234 231 231 233 236 239 243 246 249 249 248 247 250 251 254 261 262 256 249 224 216 246 278 285 283 286 290
187 186 186 188 190 193 194 193 193 198 199 195 193 193 190 189 190 190 191 194 195 196 200 203 205 206 206 208 212 216 219 220 220 220 220 220 221 221 221 222 220 220 220 221 224 230 232 233 234 236 237 238 237 237 237 237 238 238 236 234 233 235 239 243 246 250 250 247 245 244 244 244 247 254 249 227 212 223 255 274 274 267 275 289 304
182 182 184 186 189 193 196 195 195 199 200 196 194 194 190 189 190 189 190 192 194 194 196 198 203 207 209 210 211 213 216 218 219 221 221 220 221 222 223 223 221 221 221 221 224 230 233 233 233 233 235 237 236 233 232 231 232 234 236 237 237 239 243 245 244 244 241 240 239 238 239 242 242 242 236 219 216 240 268 269 257 265 284 304 311
178 180 182 185 189 195 199 199 197 200 202 197 193 194 191 188 189 188 188 191 192 192 194 196 200 205 209 211 212 212 214 215 215 217 218 219 220 221 223 224 222 222 222 221 223 229 235 236 234 232 232 233 231 227 225 224 224 226 231 235 237 238 240 239 236 232 231 232 232 230 235 242 238 230 225 227 237 250 247 242 254 275 305 305 307
175 178 180 184 191 197 202 201 198 200 202 196 192 194 192 190 189 187 186 189 190 191 193 194 198 203 207 210 211 210 212 214 212 211 212 214 216 218 220 222 221 220 219 219 220 226 232 236 236 235 233 229 224 221 220 217 216 218 222 226 229 231 231 230 227 225 226 227 226 228 236 237 225 212 214 230 247 233 213 223 242 244 262 300 324
173 176 181 186 192 199 202 199 196 199 199 194 191 192 191 191 191 189 188 189 189 190 192 194 197 201 203 206 208 209 211 213 211 208 208 210 212 214 216 218 219 218 218 217 219 223 229 233 236 236 231 221 213 211 213 212 211 214 216 220 225 227 227 225 223 223 227 226 225 229 228 216 203 198 206 224 229 203 197 210 222 228 266 324 328
174 178 182 187 195 201 201 197 195 197 195 190 190 192 193 192 192 191 192 193 192 191 192 194 197 200 200 202 203 204 209 212 213 213 213 213 214 215 215 216 218 219 220 220 218 218 222 227 228 224 217 209 202 201 206 208 209 212 215 220 226 226 225 224 222 222 225 221 218 219 212 198 193 194 200 208 204 194 197 215 226 239 303 306 302
176 181 185 191 197 199 198 194 193 195 194 189 186 187 190 193 192 192 194 196 196 195 195 196 198 199 201 203 204 206 210 213 214 217 218 216 217 219 220 220 220 219 221 220 216 214 216 217 216 215 213 210 208 208 207 205 207 211 215 220 223 221 220 221 220 220 220 213 209 212 207 198 195 195 197 202 201 197 206 226 234 242 260 274 298
180 184 189 195 198 197 195 193 191 192 192 187 181 176 175 180 186 189 191 194 195 197 198 200 201 202 203 205 206 208 211 213 213 215 217 217 217 219 222 223 220 219 220 218 212 211 215 215 213 215 219 220 220 220 217 212 209 207 209 215 218 218 220 220 215 213 213 208 207 211 210 202 199 198 199 202 197 191 202 217 224 235 247 265 304
187 190 194 199 199 197 195 191 188 188 187 182 177 172 166 161 165 175 184 189 192 197 200 201 203 205 206 208 209 207 209 212 212 213 216 216 215 214 216 219 218 217 218 216 209 208 213 216 216 216 219 223 226 226 225 224 219 210 206 211 215 218 225 225 212 204 206 206 206 210 209 203 201 198 198 201 190 182 198 213 218 231 245 265 303
196 196 198 200 198 195 193 190 187 186 184 179 174 172 169 161 155 158 166 177 186 193 198 200 203 205 206 209 210 207 206 209 211 212 214 215 211 208 209 212 213 212 211 207 204 207 212 216 220 219 216 219 227 228 225 226 226 215 206 211 217 220 224 221 203 196 203 207 206 206 199 189 187 179 184 229 231 213 221 229 231 237 241 253 316
207 202 200 200 197 192 189 188 186 185 183 177 172 172 175 172 165 159 156 159 173 184 190 193 196 199 203 206 208 206 204 204 205 206 208 207 204 201 200 200 201 204 204 203 203 206 210 215 221 222 217 216 222 226 224 222 223 214 206 212 221 218 211 206 199 202 207 203 195 189 167 146 138 142 166 222 249 245 240 241 242 241 225 195 351
228 219 209 202 195 190 188 188 185 182 181 178 172 172 176 177 171 168 167 164 166 174 181 186 186 186 190 193 195 198 200 199 199 199 196 192 192 191 190 189 190 195 200 202 204 205 209 215 221 223 221 218 220 225 224 218 217 214 208 209 213 207 197 195 197 200 198 180 165 161 161 161 166 176 186 205 223 228 236 247 248 241 195 141 20
306 289 263 234 206 191 188 187 185 182 180 178 173 169 172 174 173 173 174 173 168 166 173 180 179 174 176 179 178 178 182 184 187 189 186 185 186 185 185 186 190 195 199 202 205 207 211 218 225 227 228 226 224 225 223 215 211 208 201 196 197 191 181 181 180 169 149 149 167 181 177 168 167 175 189 205 212 213 226 246 248 242 174 151 319
329 321 307 288 249 209 192 185 184 182 180 177 173 169 169 172 171 170 173 178 179 172 168 173 174 172 173 174 173 171 171 171 172 174 176 179 183 186 187 189 193 198 202 203 206 210 214 222 231 234 234 233 228 222 216 205 197 190 183 184 187 176 161 165 171 162 147 151 176 187 175 166 172 187 195 210 223 219 223 228 227 240 245 226 241
65 29 333 313 290 246 208 188 179 176 176 177 175 171 170 169 166 166 171 179 180 170 162 167 175 179 182 184 181 178 175 171 170 172 176 179 183 187 191 194 196 201 205 206 209 212 214 220 229 235 235 231 219 206 193 182 175 171 165 161 157 152 148 150 159 165 164 157 162 169 164 161 181 205 202 218 248 253 238 229 220 236 248 231 231
53 59 61 359 323 297 249 201 181 170 168 170 170 169 171 168 158 153 157 161 157 150 152 162 171 175 181 186 186 181 177 177 179 182 185 187 189 193 198 199 202 208 207 203 203 204 204 207 212 213 208 199 186 177 168 159 152 147 142 135 130 132 136 139 147 159 166 150 127 142 164 180 210 222 210 211 231 243 251 248 232 227 237 235 233
43 49 66 57 16 351 357 13 111 145 142 145 149 152 160 159 145 137 137 134 131 136 145 150 148 149 165 184 189 183 179 180 184 188 190 192 194 198 200 197 193 189 185 183 183 184 186 189 189 181 169 159 153 151 147 141 137 134 131 127 122 123 130 142 153 162 171 174 171 177 186 194 209 220 215 213 222 230 246 258 245 239 263 279 271
41 41 58 65 54 33 29 28 23 40 66 80 89 102 120 134 134 132 130 126 125 131 130 123 121 130 153 183 188 184 181 178 174 173 177 178 177 176 174 171 164 158 157 158 159 159 160 162 159 154 146 139 135 134 131 129 130 133 135 133 129 129 137 151 162 169 183 198 204 206 207 209 215 219 218 222 226 228 244 278 281 275 284 288 276
44 38 46 65 70 59 43 34 31 41 53 60 64 71 81 92 102 109 113 113 113 115 111 103 106 121 147 165 165 161 159 158 153 144 140 140 138 133 131 134 138 138 137 137 137 137 137 137 135 131 128 124 123 126 129 127 128 135 143 145 144 145 152 162 173 180 188 195 198 202 208 212 213 213 214 223 218 212 240 269 277 281 285 281 274
48 43 39 51 63 62 55 49 47 47 50 54 58 64 71 78 84 90 95 98 100 102 101 98 103 118 137 146 142 130 124 125 123 118 116 117 115 112 111 113 118 125 128 131 134 135 132 128 124 120 119 118 118 122 129 134 135 138 141 142 141 147 159 175 190 196 194 191 197 205 205 195 189 199 212 227 236 240 251 260 267 276 283 286 287
46 46 45 48 54 56 55 54 54 54 56 60 64 66 67 72 78 82 87 91 94 97 102 106 110 114 118 120 118 112 109 107 105 103 104 106 106 106 106 107 112 119 122 122 124 124 121 118 115 114 115 117 122 127 132 137 139 136 132 129 128 128 127 129 138 157 161 153 165 190 193 182 185 210 218 223 232 247 264 272 270 269 272 284 298
42 41 44 49 54 56 56 56 57 58 59 61 64 64 64 68 74 79 84 90 96 102 106 108 108 106 105 105 106 105 102 101 100 99 99 100 101 103 103 105 108 112 113 112 113 113 110 107 106 106 107 109 113 117 120 126 132 132 129 129 131 127 119 111 108 113 124 122 108 87 74 79 93 225 281 336 1 348 330 328 319 313 319 330 327
42 41 42 46 51 56 58 59 60 60 61 62 64 66 67 71 77 83 89 95 101 104 104 101 99 99 99 100 102 101 100 100 99 97 96 99 101 102 103 104 105 106 106 107 108 108 108 108 107 106 108 110 111 111 111 113 120 125 127 130 132 129 122 118 115 117 127 128 110 81 64 52 34 11 360 7 16 11 353 350 348 345 344 344 340
43 43 43 42 45 51 56 60 61 61 61 63 66 68 69 71 73 77 83 90 96 98 96 93 93 94 95 96 98 99 98 99 99 98 99 99 100 102 104 105 105 104 104 104 104 104 106 110 112 113 115 117 118 116 113 110 111 114 118 124 127 124 121 121 117 113 122 126 113 94 79 43 13 13 23 30 28 19 10 8 9 10 14 16 13
47 48 48 47 46 47 48 52 58 62 64 65 64 65 68 70 70 69 70 75 83 89 91 89 89 90 91 94 97 99 99 99 98 98 98 98 98 100 103 103 104 105 105 105 105 106 107 109 113 116 118 119 119 116 113 109 108 109 109 109 108 106 110 119 113 101 106 112 102 86 70 47 36 41 45 47 43 35 28 24 19 17 21 19 11
53 53 54 53 53 52 50 49 51 57 65 71 71 69 67 66 65 67 68 69 71 76 81 83 84 85 87 90 93 95 95 95 94 94 96 98 99 100 100 101 103 105 105 104 104 106 108 110 113 114 114 113 113 112 110 107 106 105 102 99 95 92 96 106 105 95 98 106 100 89 85 81 70 59 52 51 46 31 15 10 6 359 355 352 346
62 61 60 58 58 58 58 57 54 52 56 64 71 73 73 69 64 63 66 68 68 69 72 76 79 80 81 82 86 89 91 91 91 91 93 98 103 105 105 104 104 105 105 104 104 104 105 106 106 106 105 104 104 103 101 99 97 94 91 89 88 87 88 94 96 96 104 114 110 102 98 91 77 65 54 44 28 3 345 345 347 341 338 338 335
64 66 67 66 65 64 63 61 58 54 54 57 61 67 71 72 68 64 63 64 67 70 72 75 78 79 77 76 77 80 83 85 88 88 90 96 103 107 107 106 105 106 106 106 105 104 103 103 103 102 100 98 96 95 93 90 87 85 84 84 85 84 84 88 92 98 107 117 110 93 83 63 44 29 2 350 353 350 344 342 341 338 337 335 330